| time (UTC) | temp C | wind direction | speed KPH | gust KPH | rain 1hr cm | rain 24hr cm | rain mn cm | humidity % | barometer mb |
| 20260904230548 | 21 | 117 | 1.6 | 3.2 | 0.00 | 0.00 | 0.00 | 83 | 982.2 |
| 20260904230048 | 21 | 141 | 1.6 | 3.2 | 0.00 | 0.00 | 0.00 | 84 | 982.2 |
| 20260904225548 | 21 | 64 | 1.6 | 3.2 | 0.00 | 0.00 | 0.00 | 85 | 982.1 |
| 20260904225047 | 21 | 114 | 1.6 | 3.2 | 0.00 | 0.00 | 0.00 | 85 | 982.1 |
| 20260904223505 | 21 | 122 | 1.6 | 3.2 | 0.00 | 0.00 | 0.00 | 86 | 981.9 |
| 20260904223005 | 21 | 96 | 4.8 | 6.4 | 0.00 | 0.00 | 0.00 | 86 | 981.8 |
| 20260904222504 | 21 | 65 | 3.2 | 4.8 | 0.00 | 0.00 | 0.00 | 86 | 981.9 |
| 20260904222004 | 21 | 63 | 3.2 | 6.4 | 0.00 | 0.00 | 0.00 | 87 | 981.8 |
| 20260904221503 | 21 | 73 | 4.8 | 8.0 | 0.00 | 0.00 | 0.00 | 86 | 981.7 |
| 20260904221002 | 21 | 51 | 3.2 | 6.4 | 0.00 | 0.00 | 0.00 | 86 | 981.7 |
| 20260904220502 | 21 | 77 | 6.4 | 9.7 | 0.00 | 0.00 | 0.00 | 86 | 981.6 |
| 20260904215441 | 21 | 75 | 4.8 | 9.7 | 0.00 | 0.00 | 0.00 | 86 | 981.5 |
| 20260904214940 | 21 | 79 | 3.2 | 4.8 | 0.00 | 0.00 | 0.00 | 87 | 981.5 |
| 20260904214439 | 21 | 100 | 3.2 | 8.0 | 0.00 | 0.00 | 0.00 | 86 | 981.3 |
| 20260904213418 | 21 | 94 | 6.4 | 8.0 | 0.00 | 0.00 | 0.00 | 87 | 981.3 |
| 20260904212918 | 21 | 91 | 4.8 | 6.4 | 0.00 | 0.00 | 0.00 | 87 | 981.4 |
| 20260904212417 | 22 | 80 | 4.8 | 9.7 | 0.00 | 0.00 | 0.00 | 89 | 981.4 |
| 20260904211917 | 22 | 99 | 4.8 | 8.0 | 0.00 | 0.00 | 0.00 | 90 | 981.3 |
| 20260904211417 | 22 | 66 | 4.8 | 9.7 | 0.00 | 0.00 | 0.00 | 91 | 981.4 |
| 20260904210917 | 22 | 80 | 4.8 | 8.0 | 0.00 | 0.00 | 0.00 | 90 | 981.4 |
| 20260904205855 | 22 | 91 | 4.8 | 8.0 | 0.00 | 0.00 | 0.00 | 90 | 981.3 |
| 20260904205355 | 22 | 108 | 6.4 | 9.7 | 0.00 | 0.00 | 0.00 | 89 | 981.3 |
| 20260904204855 | 22 | 77 | 4.8 | 6.4 | 0.00 | 0.00 | 0.00 | 89 | 981.3 |
| 20260904204355 | 22 | 76 | 3.2 | 8.0 | 0.00 | 0.00 | 0.00 | 89 | 981.3 |
| 20260904203855 | 22 | 45 | 3.2 | 4.8 | 0.00 | 0.00 | 0.00 | 90 | 981.2 |
| 20260904203354 | 22 | 57 | 4.8 | 8.0 | 0.00 | 0.00 | 0.00 | 90 | 981.3 |
| 20260904202854 | 22 | 75 | 3.2 | 8.0 | 0.00 | 0.00 | 0.00 | 90 | 981.3 |
| 20260904202354 | 22 | 81 | 4.8 | 8.0 | 0.00 | 0.00 | 0.00 | 89 | 981.4 |
| 20260904201854 | 22 | 70 | 4.8 | 6.4 | 0.00 | 0.00 | 0.00 | 90 | 981.4 |
| 20260904201353 | 22 | 65 | 4.8 | 8.0 | 0.00 | 0.00 | 0.00 | 90 | 981.5 |
| 20260904200853 | 22 | 78 | 4.8 | 8.0 | 0.00 | 0.00 | 0.00 | 89 | 981.5 |
| 20260904195832 | 22 | 94 | 3.2 | 8.0 | 0.00 | 0.00 | 0.00 | 90 | 981.5 |
| 20260904195332 | 22 | 120 | 4.8 | 8.0 | 0.00 | 0.00 | 0.00 | 91 | 981.6 |
| 20260904194831 | 22 | 145 | 6.4 | 9.7 | 0.00 | 0.00 | 0.00 | 90 | 981.7 |
| 20260904194331 | 22 | 118 | 4.8 | 9.7 | 0.00 | 0.00 | 0.00 | 91 | 981.7 |
| 20260904193831 | 22 | 120 | 1.6 | 4.8 | 0.00 | 0.00 | 0.00 | 91 | 981.8 |
| 20260904193330 | 22 | 123 | 3.2 | 8.0 | 0.00 | 0.00 | 0.00 | 91 | 981.9 |
| 20260904192309 | 22 | 88 | 4.8 | 6.4 | 0.00 | 0.00 | 0.00 | 90 | 982.0 |
| 20260904191809 | 22 | 124 | 3.2 | 6.4 | 0.00 | 0.00 | 0.00 | 90 | 982.0 |
| 20260904191309 | 22 | 112 | 4.8 | 4.8 | 0.00 | 0.00 | 0.00 | 90 | 982.0 |
| 20260904190808 | 22 | 127 | 4.8 | 8.0 | 0.00 | 0.00 | 0.00 | 90 | 982.0 |
| 20260904190308 | 22 | 167 | 3.2 | 4.8 | 0.00 | 0.00 | 0.00 | 90 | 982.1 |
| 20260904185808 | 23 | 142 | 3.2 | 4.8 | 0.00 | 0.00 | 0.00 | 88 | 982.1 |
| 20260904185308 | 23 | 143 | 1.6 | 4.8 | 0.00 | 0.00 | 0.00 | 87 | 982.2 |
| 20260904184808 | 23 | 142 | 4.8 | 6.4 | 0.00 | 0.00 | 0.00 | 86 | 982.3 |
| 20260904184308 | 23 | 54 | 1.6 | 3.2 | 0.00 | 0.00 | 0.00 | 86 | 982.3 |
| 20260904182725 | 22 | 41 | 3.2 | 3.2 | 0.00 | 0.00 | 0.00 | 88 | 982.5 |
| 20260904182224 | 23 | 105 | 3.2 | 6.4 | 0.00 | 0.00 | 0.00 | 88 | 982.4 |
| 20260904181723 | 23 | 130 | 1.6 | 3.2 | 0.00 | 0.00 | 0.00 | 87 | 982.5 |
| 20260904180702 | 23 | 144 | 3.2 | 4.8 | 0.00 | 0.00 | 0.00 | 86 | 982.5 |
| 20260904180201 | 23 | 113 | 4.8 | 6.4 | 0.00 | 0.00 | 0.00 | 86 | 982.4 |
| 20260904175701 | 23 | 45 | 4.8 | 6.4 | 0.00 | 0.00 | 0.00 | 85 | 982.5 |
| 20260904175201 | 22 | 293 | 1.6 | 3.2 | 0.00 | 0.00 | 0.00 | 87 | 982.5 |
| 20260904174701 | 22 | 127 | 3.2 | 6.4 | 0.00 | 0.00 | 0.00 | 88 | 982.7 |
| 20260904174200 | 22 | 164 | 1.6 | 3.2 | 0.00 | 0.00 | 0.00 | 86 | 982.8 |
| 20260904173700 | 22 | 153 | 3.2 | 6.4 | 0.00 | 0.00 | 0.00 | 87 | 982.9 |
| 20260904173200 | 22 | 64 | 1.6 | 3.2 | 0.00 | 0.00 | 0.00 | 88 | 983.1 |
| 20260904172659 | 21 | 332 | 3.2 | 4.8 | 0.00 | 0.00 | 0.00 | 89 | 983.3 |
| 20260904172158 | 21 | 243 | 3.2 | 4.8 | 0.00 | 0.00 | 0.00 | 88 | 983.3 |
| 20260904171657 | 21 | 67 | 1.6 | 3.2 | 0.00 | 0.00 | 0.00 | 90 | 983.5 |
| 20260904171157 | 21 | 349 | 3.2 | 6.4 | 0.00 | 0.00 | 0.00 | 92 | 983.5 |
| 20260904170136 | 21 | 350 | 3.2 | 4.8 | 0.00 | 0.00 | 0.00 | 93 | 983.6 |
| 20260904165635 | 21 | 199 | 1.6 | 3.2 | 0.00 | 0.00 | 0.00 | 94 | 983.8 |
| 20260904165135 | 20 | 315 | 4.8 | 4.8 | 0.00 | 0.00 | 0.00 | 94 | 983.9 |
| 20260904164634 | 20 | 252 | 4.8 | 6.4 | 0.00 | 0.00 | 0.00 | 94 | 984.1 |
| 20260904164134 | 20 | 308 | 4.8 | 6.4 | 0.00 | 0.00 | 0.00 | 94 | 984.2 |
| 20260904163113 | 20 | 271 | 4.8 | 6.4 | 0.00 | 0.00 | 0.00 | 94 | 984.4 |
| 20260904162611 | 20 | 0 | 0.0 | 0.0 | 0.00 | 0.00 | 0.00 | 95 | 984.5 |
| 20260904162111 | 20 | 246 | 4.8 | 8.0 | 0.00 | 0.00 | 0.00 | 95 | 984.6 |
| 20260904161611 | 20 | 257 | 3.2 | 4.8 | 0.00 | 0.00 | 0.00 | 95 | 984.7 |
| 20260904161111 | 20 | 255 | 3.2 | 6.4 | 0.00 | 0.00 | 0.00 | 95 | 984.8 |
| 20260904160610 | 20 | 278 | 4.8 | 6.4 | 0.00 | 0.00 | 0.00 | 95 | 984.8 |
| 20260904160110 | 20 | 262 | 3.2 | 6.4 | 0.00 | 0.00 | 0.00 | 95 | 984.8 |
| 20260904154528 | 20 | 250 | 4.8 | 6.4 | 0.00 | 0.00 | 0.00 | 96 | 984.5 |
| 20260904154027 | 20 | 266 | 4.8 | 4.8 | 0.00 | 0.00 | 0.00 | 96 | 984.7 |
| 20260904153527 | 20 | 286 | 3.2 | 4.8 | 0.00 | 0.00 | 0.00 | 96 | 984.7 |
| 20260904153027 | 20 | 268 | 3.2 | 6.4 | 0.00 | 0.00 | 0.00 | 96 | 984.7 |
| 20260904152527 | 20 | 300 | 3.2 | 4.8 | 0.00 | 0.00 | 0.00 | 95 | 984.7 |
| 20260904152026 | 20 | 250 | 3.2 | 4.8 | 0.00 | 0.00 | 0.00 | 95 | 984.7 |
| 20260904151004 | 20 | 244 | 3.2 | 4.8 | 0.00 | 0.00 | 0.00 | 94 | 984.6 |
| 20260904150504 | 20 | 275 | 1.6 | 1.6 | 0.00 | 0.00 | 0.00 | 94 | 984.5 |
| 20260904150004 | 20 | 0 | 0.0 | 0.0 | 0.00 | 0.00 | 0.00 | 93 | 984.4 |
| 20260904145504 | 20 | 0 | 0.0 | 0.0 | 0.00 | 0.00 | 0.00 | 94 | 984.3 |
| 20260904145004 | 20 | 154 | 1.6 | 4.8 | 0.00 | 0.00 | 0.00 | 93 | 984.4 |
| 20260904143420 | 20 | 279 | 1.6 | 3.2 | 0.00 | 0.00 | 0.00 | 93 | 984.5 |
| 20260904142920 | 20 | 316 | 1.6 | 3.2 | 0.00 | 0.00 | 0.00 | 94 | 984.4 |
| 20260904142420 | 20 | 251 | 3.2 | 4.8 | 0.00 | 0.00 | 0.00 | 94 | 984.3 |
| 20260904141920 | 20 | 0 | 0.0 | 0.0 | 0.00 | 0.00 | 0.00 | 94 | 984.2 |
| 20260904141419 | 20 | 0 | 0.0 | 0.0 | 0.00 | 0.00 | 0.00 | 94 | 984.1 |
| 20260904140919 | 20 | 253 | 1.6 | 3.2 | 0.00 | 0.00 | 0.00 | 94 | 984.1 |
| 20260904140419 | 20 | 153 | 1.6 | 3.2 | 0.00 | 0.00 | 0.00 | 95 | 984.0 |
| 20260904135918 | 20 | 153 | 1.6 | 1.6 | 0.00 | 0.00 | 0.00 | 95 | 983.9 |
| 20260904135418 | 19 | 0 | 0.0 | 0.0 | 0.00 | 0.00 | 0.00 | 95 | 983.7 |
| 20260904134917 | 19 | 171 | 1.6 | 3.2 | 0.00 | 0.00 | 0.00 | 96 | 983.8 |
| 20260904134417 | 19 | 246 | 1.6 | 3.2 | 0.00 | 0.00 | 0.00 | 95 | 983.7 |
| 20260904133916 | 19 | 165 | 1.6 | 3.2 | 0.00 | 0.00 | 0.00 | 95 | 983.6 |
| 20260904133416 | 19 | 0 | 0.0 | 0.0 | 0.00 | 0.00 | 0.00 | 96 | 983.6 |
| 20260904132916 | 18 | 167 | 3.2 | 4.8 | 0.00 | 0.00 | 0.00 | 96 | 983.6 |
| 20260904131854 | 18 | 157 | 3.2 | 3.2 | 0.00 | 0.00 | 0.00 | 95 | 983.7 |
| 20260904131354 | 18 | 140 | 1.6 | 3.2 | 0.00 | 0.00 | 0.00 | 96 | 983.7 |
| 20260904130854 | 18 | 177 | 1.6 | 3.2 | 0.00 | 0.00 | 0.00 | 97 | 983.8 |
| 20260904130354 | 18 | 179 | 3.2 | 4.8 | 0.00 | 0.00 | 0.00 | 97 | 983.8 |
| 20260904125853 | 18 | 154 | 3.2 | 4.8 | 0.00 | 0.00 | 0.00 | 97 | 983.8 |
| 20260904125353 | 18 | 123 | 1.6 | 1.6 | 0.00 | 0.00 | 0.00 | 97 | 983.9 |
| 20260904124332 | 18 | 0 | 0.0 | 0.0 | 0.00 | 0.00 | 0.00 | 98 | 984.0 |
| 20260904123832 | 18 | 252 | 1.6 | 3.2 | 0.00 | 0.00 | 0.00 | 98 | 984.0 |
| 20260904123331 | 18 | 0 | 0.0 | 0.0 | 0.00 | 0.00 | 0.00 | 98 | 984.0 |
| 20260904122830 | 18 | 0 | 0.0 | 0.0 | 0.00 | 0.00 | 0.00 | 98 | 984.0 |
| 20260904122330 | 18 | 134 | 1.6 | 1.6 | 0.00 | 0.00 | 0.00 | 98 | 983.9 |
| 20260904121830 | 18 | 0 | 0.0 | 0.0 | 0.00 | 0.00 | 0.00 | 98 | 983.9 |
| 20260904121330 | 18 | 162 | 1.6 | 3.2 | 0.00 | 0.00 | 0.00 | 98 | 983.8 |
| 20260904120829 | 18 | 151 | 1.6 | 3.2 | 0.00 | 0.00 | 0.00 | 98 | 983.9 |
| 20260904120329 | 18 | 0 | 0.0 | 0.0 | 0.00 | 0.00 | 0.00 | 98 | 983.8 |
| 20260904115828 | 18 | 0 | 0.0 | 0.0 | 0.00 | 0.00 | 0.00 | 98 | 983.6 |
| 20260904115328 | 18 | 0 | 0.0 | 0.0 | 0.00 | 0.00 | 0.00 | 98 | 983.6 |
| 20260904114828 | 18 | 0 | 0.0 | 0.0 | 0.00 | 0.00 | 0.00 | 98 | 983.6 |
| 20260904114328 | 18 | 21 | 0.0 | 1.6 | 0.00 | 0.00 | 0.00 | 98 | 983.5 |
| 20260904113827 | 18 | 0 | 0.0 | 0.0 | 0.00 | 0.00 | 0.00 | 98 | 983.4 |
| 20260904112806 | 17 | 0 | 0.0 | 0.0 | 0.00 | 0.00 | 0.00 | 98 | 983.5 |
| 20260904112306 | 17 | 0 | 0.0 | 0.0 | 0.00 | 0.00 | 0.00 | 98 | 983.4 |
| 20260904111244 | 17 | 0 | 0.0 | 0.0 | 0.00 | 0.00 | 0.00 | 98 | 983.3 |
| 20260904110744 | 17 | 0 | 0.0 | 0.0 | 0.00 | 0.00 | 0.00 | 98 | 983.3 |
| 20260904110244 | 17 | 0 | 0.0 | 0.0 | 0.00 | 0.00 | 0.00 | 98 | 983.2 |
| 20260904105744 | 17 | 0 | 0.0 | 0.0 | 0.00 | 0.00 | 0.00 | 98 | 982.9 |
| 20260904105243 | 17 | 0 | 0.0 | 0.0 | 0.00 | 0.00 | 0.00 | 98 | 982.8 |
| 20260904104743 | 18 | 0 | 0.0 | 0.0 | 0.00 | 0.00 | 0.00 | 98 | 982.7 |
| 20260904104243 | 18 | 0 | 0.0 | 0.0 | 0.00 | 0.00 | 0.00 | 98 | 982.8 |
| 20260904103222 | 18 | 44 | 1.6 | 3.2 | 0.00 | 0.00 | 0.00 | 98 | 982.8 |
| 20260904102721 | 18 | 0 | 0.0 | 0.0 | 0.00 | 0.00 | 0.00 | 98 | 982.8 |
| 20260904102220 | 18 | 150 | 3.2 | 3.2 | 0.00 | 0.00 | 0.00 | 98 | 982.7 |
| 20260904101720 | 18 | 0 | 0.0 | 0.0 | 0.00 | 0.00 | 0.00 | 98 | 982.8 |
| 20260904101220 | 18 | 0 | 0.0 | 0.0 | 0.00 | 0.00 | 0.00 | 98 | 982.8 |
| 20260904100720 | 18 | 0 | 0.0 | 0.0 | 0.00 | 0.00 | 0.00 | 98 | 982.9 |
| 20260904100220 | 18 | 0 | 0.0 | 0.0 | 0.00 | 0.00 | 0.00 | 98 | 982.9 |
| 20260904095720 | 18 | 0 | 0.0 | 0.0 | 0.00 | 0.00 | 0.00 | 98 | 982.8 |
| 20260904095219 | 18 | 135 | 3.2 | 3.2 | 0.00 | 0.00 | 0.00 | 98 | 982.9 |
| 20260904094719 | 18 | 0 | 0.0 | 0.0 | 0.00 | 0.00 | 0.00 | 98 | 983.0 |
| 20260904094219 | 18 | 0 | 0.0 | 0.0 | 0.00 | 0.00 | 0.00 | 98 | 983.0 |
| 20260904093719 | 18 | 0 | 0.0 | 0.0 | 0.00 | 0.00 | 0.00 | 98 | 983.1 |
| 20260904093219 | 18 | 0 | 0.0 | 0.0 | 0.00 | 0.00 | 0.00 | 98 | 983.1 |
| 20260904092718 | 18 | 0 | 0.0 | 0.0 | 0.00 | 0.00 | 0.00 | 98 | 983.1 |
| 20260904092218 | 18 | 0 | 0.0 | 0.0 | 0.00 | 0.00 | 0.00 | 98 | 983.0 |
| 20260904091718 | 18 | 0 | 0.0 | 0.0 | 0.00 | 0.00 | 0.00 | 98 | 982.9 |
| 20260904091218 | 18 | 40 | 1.6 | 3.2 | 0.00 | 0.00 | 0.00 | 98 | 982.9 |
| 20260904090156 | 18 | 59 | 1.6 | 3.2 | 0.00 | 0.00 | 0.00 | 98 | 983.0 |
| 20260904085135 | 18 | 0 | 0.0 | 0.0 | 0.00 | 0.00 | 0.00 | 98 | 982.9 |
| 20260904084634 | 18 | 0 | 0.0 | 0.0 | 0.00 | 0.00 | 0.00 | 98 | 982.9 |
| 20260904084134 | 18 | 24 | 1.6 | 3.2 | 0.00 | 0.00 | 0.00 | 97 | 982.9 |
| 20260904083634 | 18 | 0 | 0.0 | 0.0 | 0.00 | 0.00 | 0.00 | 97 | 982.7 |
| 20260904083134 | 18 | 0 | 0.0 | 0.0 | 0.00 | 0.00 | 0.00 | 97 | 982.6 |
| 20260904082634 | 18 | 0 | 0.0 | 0.0 | 0.00 | 0.00 | 0.00 | 97 | 982.6 |
| 20260904082132 | 18 | 0 | 0.0 | 0.0 | 0.00 | 0.00 | 0.00 | 97 | 982.6 |
| 20260904081632 | 18 | 0 | 0.0 | 0.0 | 0.00 | 0.00 | 0.00 | 97 | 982.7 |
| 20260904081132 | 18 | 0 | 0.0 | 0.0 | 0.00 | 0.00 | 0.00 | 97 | 982.7 |
| 20260904080632 | 18 | 0 | 0.0 | 0.0 | 0.00 | 0.00 | 0.00 | 97 | 982.8 |
| 20260904075610 | 18 | 25 | 1.6 | 1.6 | 0.00 | 0.00 | 0.00 | 97 | 982.9 |
| 20260904075110 | 18 | 345 | 1.6 | 4.8 | 0.00 | 0.00 | 0.00 | 97 | 982.9 |
| 20260904074610 | 18 | 12 | 1.6 | 3.2 | 0.00 | 0.00 | 0.00 | 97 | 983.0 |
| 20260904074110 | 18 | 58 | 3.2 | 4.8 | 0.00 | 0.00 | 0.00 | 97 | 983.0 |
| 20260904073609 | 18 | 236 | 1.6 | 4.8 | 0.00 | 0.00 | 0.00 | 97 | 983.0 |
| 20260904073109 | 18 | 45 | 4.8 | 4.8 | 0.00 | 0.00 | 0.00 | 97 | 983.2 |
| 20260904072609 | 18 | 351 | 3.2 | 6.4 | 0.00 | 0.00 | 0.00 | 97 | 983.3 |
| 20260904072109 | 18 | 359 | 1.6 | 4.8 | 0.00 | 0.00 | 0.00 | 96 | 983.3 |
| 20260904071608 | 18 | 357 | 3.2 | 4.8 | 0.00 | 0.00 | 0.00 | 96 | 983.3 |
| 20260904071108 | 18 | 346 | 1.6 | 3.2 | 0.00 | 0.00 | 0.00 | 96 | 983.4 |
| 20260904070608 | 18 | 352 | 4.8 | 8.0 | 0.00 | 0.00 | 0.00 | 96 | 983.5 |
| 20260904070108 | 18 | 0 | 0.0 | 0.0 | 0.00 | 0.00 | 0.00 | 96 | 983.5 |
| 20260904065046 | 19 | 0 | 0.0 | 0.0 | 0.00 | 0.00 | 0.00 | 96 | 983.4 |
| 20260904064546 | 19 | 332 | 4.8 | 8.0 | 0.00 | 0.00 | 0.00 | 96 | 983.4 |
| 20260904064046 | 19 | 343 | 3.2 | 8.0 | 0.00 | 0.00 | 0.00 | 96 | 983.3 |
| 20260904063025 | 19 | 340 | 1.6 | 4.8 | 0.00 | 0.00 | 0.00 | 96 | 983.2 |
| 20260904062524 | 19 | 4 | 1.6 | 3.2 | 0.00 | 0.00 | 0.00 | 97 | 983.2 |
| 20260904062024 | 19 | 332 | 1.6 | 3.2 | 0.00 | 0.00 | 0.00 | 97 | 983.3 |
| 20260904061523 | 19 | 13 | 3.2 | 4.8 | 0.00 | 0.00 | 0.00 | 97 | 983.4 |
| 20260904061023 | 19 | 0 | 0.0 | 0.0 | 0.00 | 0.00 | 0.00 | 97 | 983.3 |
| 20260904060523 | 19 | 0 | 0.0 | 0.0 | 0.00 | 0.00 | 0.00 | 97 | 983.3 |
| 20260904060023 | 19 | 336 | 3.2 | 3.2 | 0.00 | 0.00 | 0.00 | 97 | 983.3 |
| 20260904055522 | 19 | 354 | 1.6 | 4.8 | 0.00 | 0.00 | 0.00 | 97 | 983.3 |
| 20260904055022 | 19 | 343 | 0.0 | 1.6 | 0.00 | 0.00 | 0.00 | 97 | 983.5 |
| 20260904054522 | 19 | 324 | 3.2 | 8.0 | 0.00 | 0.00 | 0.00 | 97 | 983.6 |
| 20260904054022 | 19 | 314 | 4.8 | 8.0 | 0.00 | 0.00 | 0.00 | 97 | 983.5 |
| 20260904053522 | 19 | 326 | 3.2 | 4.8 | 0.00 | 0.00 | 0.00 | 97 | 983.4 |
| 20260904052500 | 19 | 358 | 6.4 | 9.7 | 0.00 | 0.00 | 0.00 | 97 | 983.5 |
| 20260904051959 | 20 | 342 | 4.8 | 9.7 | 0.00 | 0.00 | 0.00 | 97 | 983.5 |
| 20260904050938 | 20 | 343 | 3.2 | 6.4 | 0.00 | 0.00 | 0.00 | 97 | 983.4 |
| 20260904050438 | 20 | 353 | 1.6 | 4.8 | 0.00 | 0.00 | 0.00 | 97 | 983.4 |
| 20260904045937 | 20 | 322 | 1.6 | 4.8 | 0.00 | 0.00 | 0.00 | 97 | 983.4 |
| 20260904045437 | 20 | 318 | 3.2 | 4.8 | 0.00 | 0.00 | 0.00 | 97 | 983.4 |
| 20260904044937 | 20 | 323 | 1.6 | 3.2 | 0.00 | 0.00 | 0.00 | 97 | 983.3 |
| 20260904044437 | 20 | 324 | 1.6 | 3.2 | 0.00 | 0.00 | 0.00 | 97 | 983.3 |
| 20260904043936 | 20 | 330 | 1.6 | 3.2 | 0.00 | 0.00 | 0.00 | 97 | 983.3 |
| 20260904043436 | 20 | 0 | 0.0 | 0.0 | 0.00 | 0.00 | 0.00 | 97 | 983.3 |
| 20260904041853 | 20 | 0 | 0.0 | 0.0 | 0.00 | 0.00 | 0.00 | 97 | 983.2 |
| 20260904041353 | 20 | 335 | 3.2 | 4.8 | 0.00 | 0.00 | 0.00 | 97 | 983.1 |
| 20260904040852 | 20 | 320 | 3.2 | 6.4 | 0.00 | 0.00 | 0.00 | 97 | 983.0 |
| 20260904034227 | 20 | 217 | 1.6 | 3.2 | 0.00 | 0.00 | 0.00 | 97 | 983.0 |
| 20260904033727 | 20 | 353 | 1.6 | 4.8 | 0.00 | 0.00 | 0.00 | 97 | 983.0 |
| 20260904033227 | 20 | 12 | 3.2 | 4.8 | 0.00 | 0.00 | 0.00 | 97 | 983.0 |
| 20260904032727 | 20 | 12 | 3.2 | 4.8 | 0.00 | 0.00 | 0.00 | 97 | 982.9 |
| 20260904031705 | 20 | 349 | 0.0 | 1.6 | 0.00 | 0.00 | 0.00 | 97 | 982.9 |
| 20260904031204 | 20 | 283 | 1.6 | 3.2 | 0.00 | 0.00 | 0.00 | 97 | 982.9 |
| 20260904030143 | 20 | 346 | 4.8 | 6.4 | 0.00 | 0.00 | 0.00 | 97 | 982.8 |
| 20260904025121 | 20 | 355 | 1.6 | 3.2 | 0.00 | 0.00 | 0.00 | 97 | 982.6 |
| 20260904024621 | 20 | 330 | 3.2 | 4.8 | 0.00 | 0.00 | 0.00 | 97 | 982.5 |
| 20260904023559 | 20 | 257 | 3.2 | 4.8 | 0.00 | 0.00 | 0.00 | 97 | 982.5 |
| 20260904023059 | 20 | 247 | 1.6 | 4.8 | 0.00 | 0.00 | 0.00 | 97 | 982.6 |
| 20260904022038 | 20 | 292 | 1.6 | 3.2 | 0.00 | 0.00 | 0.00 | 97 | 982.6 |
| 20260904021537 | 20 | 288 | 3.2 | 6.4 | 0.00 | 0.00 | 0.00 | 97 | 982.7 |
| 20260904020516 | 20 | 258 | 3.2 | 4.8 | 0.00 | 0.00 | 0.00 | 97 | 982.7 |
| 20260904020016 | 20 | 280 | 3.2 | 4.8 | 0.00 | 0.00 | 0.00 | 97 | 982.7 |
| 20260904015515 | 20 | 266 | 4.8 | 6.4 | 0.00 | 0.00 | 0.00 | 97 | 982.7 |
| 20260904015014 | 20 | 257 | 3.2 | 4.8 | 0.00 | 0.00 | 0.00 | 97 | 982.5 |
| 20260904014513 | 20 | 259 | 4.8 | 6.4 | 0.00 | 0.00 | 0.00 | 97 | 982.5 |
| 20260904014013 | 20 | 269 | 1.6 | 3.2 | 0.00 | 0.00 | 0.00 | 97 | 982.4 |
| 20260904013513 | 20 | 275 | 4.8 | 8.0 | 0.00 | 0.00 | 0.00 | 97 | 982.4 |
| 20260904013013 | 20 | 297 | 1.6 | 3.2 | 0.00 | 0.00 | 0.00 | 97 | 982.3 |
| 20260904012512 | 20 | 261 | 3.2 | 4.8 | 0.00 | 0.00 | 0.00 | 97 | 982.2 |
| 20260904012012 | 20 | 249 | 1.6 | 4.8 | 0.00 | 0.00 | 0.00 | 97 | 982.2 |
| 20260904011511 | 20 | 238 | 3.2 | 4.8 | 0.00 | 0.00 | 0.00 | 97 | 982.2 |
| 20260904011010 | 20 | 275 | 3.2 | 4.8 | 0.00 | 0.00 | 0.00 | 97 | 982.2 |
| 20260904010510 | 20 | 289 | 3.2 | 4.8 | 0.00 | 0.00 | 0.00 | 97 | 982.1 |
| 20260904005448 | 21 | 258 | 3.2 | 4.8 | 0.00 | 0.00 | 0.00 | 97 | 982.0 |
| 20260904004948 | 21 | 302 | 3.2 | 4.8 | 0.00 | 0.00 | 0.00 | 97 | 982.0 |
| 20260904004448 | 21 | 285 | 3.2 | 4.8 | 0.00 | 0.00 | 0.00 | 97 | 982.0 |
| 20260904003426 | 21 | 282 | 1.6 | 1.6 | 0.00 | 0.00 | 0.00 | 97 | 981.8 |
| 20260904002926 | 21 | 264 | 4.8 | 6.4 | 0.00 | 0.00 | 0.00 | 96 | 981.8 |
| 20260904002426 | 21 | 291 | 4.8 | 6.4 | 0.00 | 0.00 | 0.00 | 96 | 981.9 |
| 20260904001926 | 21 | 289 | 4.8 | 6.4 | 0.00 | 0.00 | 0.00 | 97 | 981.8 |
| 20260904001426 | 21 | 279 | 4.8 | 4.8 | 0.00 | 0.00 | 0.00 | 97 | 981.7 |
| 20260904000925 | 21 | 252 | 3.2 | 4.8 | 0.00 | 0.00 | 0.00 | 97 | 981.6 |
| 20260904000425 | 21 | 325 | 3.2 | 6.4 | 0.00 | 0.00 | 0.00 | 97 | 981.6 |
| 20260903235925 | 21 | 0 | 0.0 | 0.0 | 0.00 | 0.00 | 0.00 | 96 | 981.4 |
| 20260903235425 | 21 | 0 | 0.0 | 0.0 | 0.00 | 0.00 | 0.00 | 96 | 981.3 |
| 20260903234924 | 21 | 0 | 0.0 | 0.0 | 0.00 | 0.00 | 0.00 | 96 | 981.4 |
| 20260903234424 | 21 | 299 | 1.6 | 3.2 | 0.00 | 0.00 | 0.00 | 96 | 981.4 |
| 20260903233923 | 21 | 336 | 3.2 | 4.8 | 0.00 | 0.00 | 0.00 | 96 | 981.6 |
| 20260903233423 | 21 | 345 | 4.8 | 9.7 | 0.00 | 0.00 | 0.00 | 96 | 981.8 |
| 20260903232923 | 21 | 355 | 1.6 | 4.8 | 0.00 | 0.00 | 0.00 | 96 | 981.7 |
| 20260903232422 | 21 | 326 | 3.2 | 8.0 | 0.00 | 0.00 | 0.00 | 96 | 981.4 |
| 20260903231922 | 21 | 269 | 3.2 | 6.4 | 0.00 | 0.00 | 0.00 | 96 | 981.0 |
| 20260903231422 | 21 | 272 | 1.6 | 3.2 | 0.00 | 0.00 | 0.00 | 96 | 980.8 |